{"data":{"norad_id":49167,"intl_designator":"2021-082AP","name":"STARLINK-3054","alt_names":[],"object_type":"PAYLOAD","status":"ACTIVE","operator":null,"country":"US","launch_date":"2021-09-14","launch_site_code":"AFWTR","launch_vehicle":null,"mission":null,"orbit_class":"UNKNOWN","rcs_meters":null,"size_class":null,"mass_kg":null,"dimensions":null,"purposes":["comms"],"wikipedia_slug":null,"has_3d_model":false,"image_url":null,"decayed_at":null,"tle_current":{"epoch":"2026-09-20T03:15:22.966272Z","epoch_age_seconds":72788,"freshness":"FRESH","line1":"1 49167U 21082AP  26263.13568248  .00000709  00000+0  67222-4 0  9994","line2":"2 49167  69.9994 164.1814 0002681 271.4567  88.6285 14.98329371276301","mean_motion":14.98329371,"eccentricity":0.0002681,"inclination_deg":69.9994,"raan_deg":164.1814,"arg_perigee_deg":271.4567,"mean_anomaly_deg":88.6285,"bstar":6.7222e-5,"rev_number":27630,"period_min":96.107039471497,"perigee_km":570.19448884016,"apogee_km":573.92118331126,"semimajor_km":6950.1948360757,"source":"CELESTRAK","updated_at":"2026-09-20T09:00:39.252929Z"}}}